QPF
0.08 0.10 0.12 0.12 0.13 0.13 0.14 0.16 0.16 0.11 0.05 0.02 0.01 0.00 0.00 0.01 0.00 0.00 0.00 0.01 0.01 0.01 0.01 0.00 0.01 0.04 0.05 0.06 0.06 0.05 0.03 0.01 0.00 0.00 0.00 0.00 0.00 0.00
0.04 0.07 0.09 0.10 0.11 0.12 0.13 0.14 0.17 0.18 0.12 0.04 0.03 0.02 0.03 0.02 0.02 0.03 0.03 0.03 0.03 0.04 0.04 0.03 0.02 0.02 0.04 0.06 0.07 0.06 0.04 0.01 0.00 0.00 0.00 0.00 0.00 0.00
0.03 0.05 0.07 0.09 0.11 0.11 0.11 0.13 0.14 0.18 0.16 0.07 0.05 0.06 0.06 0.04 0.03 0.06 0.06 0.04 0.05 0.07 0.08 0.08 0.08 0.07 0.06 0.06 0.05 0.04 0.03 0.01 0.01 0.00 0.00 0.00 0.00 0.00
0.01 0.02 0.04 0.06 0.08 0.11 0.13 0.12 0.12 0.14 0.17 0.11 0.05 0.05 0.06 0.06 0.07 0.09 0.10 0.10 0.09 0.10 0.10 0.12 0.14 0.14 0.11 0.08 0.06 0.05 0.03 0.02 0.01 0.01 0.00 0.00 0.00 0.00
0.01 0.01 0.01 0.02 0.02 0.05 0.08 0.11 0.12 0.15 0.20 0.20 0.12 0.10 0.11 0.09 0.10 0.09 0.11 0.13 0.12 0.13 0.13 0.13 0.14 0.14 0.12 0.09 0.07 0.06 0.05 0.04 0.03 0.02 0.00 0.00 0.00 0.00
0.00 0.01 0.01 0.01 0.02 0.03 0.06 0.08 0.12 0.16 0.19 0.21 0.17 0.13 0.13 0.12 0.12 0.10 0.12 0.13 0.16 0.17 0.15 0.13 0.12 0.12 0.12 0.11 0.09 0.07 0.06 0.06 0.06 0.04 0.01 0.00 0.00 0.00
0.00 0.00 0.00 0.00 0.01 0.02 0.05 0.07 0.11 0.13 0.15 0.18 0.18 0.16 0.15 0.15 0.13 0.13 0.17 0.19 0.20 0.17 0.16 0.16 0.16 0.19 0.21 0.22 0.20 0.16 0.13 0.11 0.08 0.04 0.01 0.00 0.00 0.00
0.00 0.00 0.00 0.00 0.01 0.02 0.04 0.05 0.07 0.10 0.12 0.15 0.18 0.19 0.18 0.21 0.24 0.28 0.30 0.31 0.30 0.22 0.24 0.32 0.36 0.40 0.40 0.38 0.35 0.28 0.21 0.14 0.08 0.02 0.00 0.00 0.00 0.00
0.00 0.00 0.00 0.01 0.02 0.03 0.03 0.02 0.02 0.05 0.09 0.13 0.14 0.13 0.14 0.15 0.21 0.23 0.26 0.30 0.31 0.30 0.35 0.42 0.42 0.42 0.39 0.38 0.35 0.25 0.16 0.09 0.04 0.01 0.00 0.00 0.00 0.00
0.00 0.00 0.00 0.01 0.01 0.02 0.03 0.03 0.01 0.01 0.03 0.05 0.06 0.05 0.08 0.12 0.18 0.23 0.32 0.42 0.42 0.37 0.32 0.33 0.30 0.29 0.29 0.27 0.24 0.17 0.10 0.05 0.02 0.01 0.00 0.00 0.00 0.00
0.00 0.00 0.00 0.00 0.00 0.01 0.02 0.01 0.01 0.01 0.02 0.03 0.03 0.04 0.06 0.11 0.17 0.24 0.31 0.37 0.35 0.29 0.24 0.24 0.25 0.26 0.24 0.20 0.16 0.12 0.07 0.03 0.01 0.00 0.00 0.00 0.00 0.00
0.00 0.00 0.00 0.00 0.00 0.00 0.01 0.01 0.01 0.01 0.01 0.02 0.03 0.03 0.03 0.05 0.11 0.15 0.20 0.27 0.30 0.28 0.24 0.23 0.24 0.25 0.23 0.17 0.12 0.08 0.04 0.01 0.00 0.00 0.00 0.00 0.00 0.00
0.00 0.00 0.00 0.00 0.00 0.00 0.01 0.01 0.02 0.03 0.02 0.02 0.04 0.03 0.02 0.02 0.03 0.08 0.15 0.26 0.34 0.35 0.31 0.28 0.27 0.24 0.18 0.13 0.08 0.04 0.01 0.00 0.00 0.00 0.00 0.00 0.00 0.00
0.01 0.01 0.00 0.00 0.00 0.01 0.01 0.02 0.02 0.03 0.02 0.02 0.03 0.03 0.04 0.07 0.11 0.15 0.18 0.23 0.30 0.37 0.37 0.31 0.27 0.23 0.17 0.10 0.04 0.01 0.00 0.00 0.00 0.00 0.00 0.00 0.00 0.00
0.01 0.01 0.01 0.01 0.01 0.01 0.02 0.02 0.02 0.03 0.03 0.04 0.04 0.07 0.10 0.17 0.21 0.22 0.21 0.22 0.25 0.30 0.30 0.26 0.21 0.17 0.11 0.06 0.02 0.00 0.00 0.00 0.00 0.00 0.00 0.00 0.00 0.00
0.00 0.00 0.01 0.01 0.01 0.02 0.02 0.01 0.02 0.04 0.06 0.04 0.05 0.08 0.12 0.18 0.20 0.22 0.24 0.25 0.28 0.31 0.27 0.19 0.12 0.07 0.03 0.01 0.00 0.00 0.00 0.00 0.00 0.00 0.00 0.00 0.00 0.00
0.01 0.01 0.01 0.01 0.01 0.01 0.01 0.01 0.01 0.03 0.05 0.05 0.06 0.08 0.13 0.21 0.29 0.33 0.32 0.32 0.30 0.28 0.21 0.11 0.03 0.01 0.00 0.00 0.00 0.00 0.00 0.00 0.00 0.00 0.00 0.00 0.00 0.00
0.02 0.01 0.01 0.01 0.02 0.02 0.02 0.02 0.02 0.03 0.05 0.07 0.07 0.09 0.14 0.21 0.31 0.37 0.39 0.34 0.26 0.17 0.09 0.04 0.01 0.00 0.00 0.00 0.00 0.00 0.00 0.00 0.00 0.00 0.00 0.00 0.00 0.00
0.01 0.01 0.01 0.01 0.02 0.02 0.03 0.04 0.05 0.05 0.08 0.11 0.13 0.15 0.18 0.23 0.30 0.34 0.33 0.25 0.15 0.06 0.02 0.00 0.00 0.00 0.00 0.00 0.00 0.00 0.00 0.00 0.00 0.00 0.00 0.00 0.00 0.00
0.01 0.01 0.01 0.01 0.02 0.02 0.04 0.07 0.09 0.10 0.12 0.15 0.18 0.19 0.19 0.22 0.29 0.28 0.21 0.12 0.05 0.01 0.00 0.00 0.00 0.00 0.00 0.00 0.00 0.00 0.00 0.00 0.00 0.00 0.00 0.00 0.00 0.00
0.01 0.01 0.01 0.01 0.02 0.02 0.04 0.08 0.12 0.15 0.17 0.19 0.21 0.22 0.21 0.24 0.26 0.21 0.11 0.03 0.01 0.00 0.00 0.00 0.00 0.00 0.00 0.00 0.00 0.00 0.00 0.00 0.00 0.00 0.00 0.01 0.01 0.00
0.01 0.01 0.01 0.01 0.02 0.02 0.04 0.08 0.12 0.16 0.18 0.20 0.22 0.20 0.19 0.20 0.17 0.10 0.03 0.00 0.00 0.00 0.00 0.00 0.00 0.00 0.00 0.00 0.00 0.00 0.00 0.00 0.00 0.00 0.01 0.01 0.02 0.01
0.01 0.01 0.01 0.01 0.01 0.03 0.05 0.09 0.14 0.17 0.17 0.19 0.20 0.18 0.16 0.13 0.06 0.01 0.00 0.00 0.00 0.00 0.00 0.00 0.00 0.00 0.00 0.00 0.00 0.00 0.00 0.00 0.00 0.00 0.00 0.00 0.00 0.00
MSLP
1003.18 1002.70 1002.21 1001.71 1001.15 1000.53 999.84 999.09 998.33 997.58 996.89 996.30 995.85 995.53 995.33 995.24 995.22 995.24 995.25 995.26 995.24 995.20 995.18 995.18 995.24 995.39 995.65 996.01 996.47 997.03 997.66 998.33 999.01 999.68 1000.33 1000.93 1001.47 1001.95
1002.98 1002.45 1001.92 1001.36 1000.75 1000.06 999.30 998.49 997.66 996.84 996.09 995.43 994.90 994.51 994.25 994.09 994.00 993.96 993.94 993.90 993.86 993.82 993.80 993.83 993.93 994.12 994.43 994.85 995.39 996.02 996.71 997.45 998.20 998.94 999.64 1000.29 1000.88 1001.40
1002.83 1002.27 1001.71 1001.12 1000.47 999.75 998.96 998.11 997.23 996.37 995.56 994.84 994.24 993.76 993.41 993.16 992.98 992.85 992.75 992.66 992.57 992.51 992.49 992.53 992.65 992.89 993.25 993.73 994.32 995.01 995.77 996.57 997.39 998.19 998.95 999.65 1000.29 1000.84
1002.69 1002.13 1001.56 1000.95 1000.30 999.57 998.77 997.90 997.01 996.12 995.27 994.49 993.81 993.25 992.79 992.42 992.13 991.89 991.69 991.52 991.38 991.29 991.26 991.31 991.47 991.74 992.15 992.68 993.32 994.05 994.86 995.71 996.57 997.41 998.23 998.98 999.67 1000.27
1002.56 1002.00 1001.43 1000.84 1000.19 999.47 998.68 997.83 996.93 996.03 995.15 994.31 993.56 992.89 992.31 991.82 991.40 991.04 990.74 990.48 990.29 990.17 990.14 990.21 990.40 990.72 991.16 991.73 992.41 993.17 994.00 994.88 995.76 996.64 997.49 998.28 999.01 999.66
1002.42 1001.87 1001.32 1000.74 1000.11 999.41 998.63 997.80 996.91 995.99 995.08 994.20 993.36 992.59 991.89 991.27 990.72 990.24 989.84 989.52 989.29 989.15 989.13 989.24 989.47 989.83 990.32 990.92 991.62 992.40 993.24 994.11 995.00 995.89 996.75 997.57 998.32 999.00
1002.28 1001.73 1001.18 1000.61 999.99 999.30 998.55 997.72 996.83 995.91 994.97 994.03 993.12 992.25 991.44 990.70 990.04 989.46 988.98 988.60 988.35 988.23 988.24 988.39 988.68 989.10 989.63 990.27 990.98 991.77 992.60 993.45 994.32 995.19 996.04 996.86 997.63 998.32
1002.14 1001.57 1001.01 1000.42 999.79 999.11 998.35 997.53 996.64 995.70 994.73 993.74 992.76 991.81 990.91 990.07 989.31 988.66 988.13 987.73 987.48 987.39 987.46 987.67 988.03 988.51 989.10 989.77 990.50 991.28 992.09 992.92 993.75 994.59 995.41 996.21 996.96 997.66
1002.00 1001.39 1000.78 1000.16 999.50 998.78 998.01 997.17 996.27 995.31 994.31 993.29 992.26 991.25 990.27 989.37 988.56 987.87 987.31 986.92 986.70 986.66 986.80 987.09 987.52 988.07 988.72 989.42 990.17 990.94 991.73 992.52 993.31 994.10 994.88 995.64 996.37 997.06
1001.83 1001.15 1000.48 999.79 999.08 998.32 997.52 996.65 995.73 994.76 993.74 992.69 991.63 990.58 989.58 988.64 987.81 987.11 986.57 986.21 986.04 986.07 986.27 986.65 987.15 987.77 988.46 989.20 989.96 990.73 991.50 992.25 993.00 993.74 994.47 995.19 995.89 996.54
1001.62 1000.86 1000.10 999.34 998.56 997.75 996.91 996.01 995.07 994.08 993.05 991.99 990.93 989.88 988.88 987.95 987.14 986.47 985.96 985.65 985.54 985.63 985.91 986.35 986.92 987.59 988.32 989.09 989.86 990.63 991.37 992.10 992.81 993.50 994.19 994.86 995.50 996.12
1001.35 1000.51 999.68 998.84 997.99 997.12 996.23 995.31 994.34 993.35 992.33 991.28 990.24 989.22 988.26 987.37 986.61 985.99 985.54 985.28 985.24 985.39 985.72 986.21 986.82 987.52 988.28 989.06 989.83 990.59 991.32 992.02 992.69 993.35 993.99 994.60 995.20 995.77
1001.04 1000.13 999.23 998.33 997.42 996.50 995.57 994.62 993.65 992.66 991.65 990.64 989.64 988.67 987.77 986.95 986.25 985.70 985.33 985.13 985.14 985.34 985.71 986.22 986.85 987.57 988.32 989.10 989.86 990.60 991.31 991.98 992.62 993.23 993.82 994.39 994.94 995.46
1000.71 999.76 998.81 997.86 996.91 995.96 994.99 994.02 993.05 992.06 991.08 990.11 989.16 988.27 987.44 986.71 986.10 985.63 985.33 985.20 985.26 985.49 985.88 986.40 987.02 987.72 988.45 989.20 989.93 990.64 991.32 991.95 992.55 993.12 993.66 994.17 994.66 995.12
1000.39 999.43 998.47 997.50 996.53 995.54 994.56 993.57 992.58 991.61 990.65 989.72 988.83 988.01 987.27 986.63 986.12 985.74 985.52 985.46 985.57 985.83 986.22 986.73 987.33 987.99 988.68 989.37 990.06 990.72 991.34 991.92 992.47 992.98 993.46 993.91 994.33 994.72
1000.14 999.20 998.25 997.28 996.29 995.30 994.29 993.28 992.28 991.30 990.36 989.46 988.63 987.88 987.23 986.69 986.27 985.99 985.86 985.87 986.03 986.31 986.71 987.20 987.76 988.37 989.00 989.63 990.24 990.83 991.38 991.89 992.37 992.81 993.21 993.59 993.93 994.25
1000.00 999.10 998.17 997.21 996.22 995.21 994.18 993.14 992.12 991.12 990.18 989.31 988.52 987.84 987.27 986.82 986.51 986.34 986.29 986.38 986.60 986.91 987.32 987.79 988.31 988.86 989.42 989.96 990.49 990.98 991.44 991.86 992.25 992.60 992.91 993.20 993.46 993.70
999.97 999.12 998.23 997.28 996.29 995.25 994.18 993.11 992.05 991.03 990.08 989.22 988.47 987.84 987.35 987.00 986.79 986.72 986.78 986.96 987.23 987.59 988.01 988.47 988.95 989.44 989.92 990.37 990.80 991.18 991.53 991.84 992.11 992.35 992.56 992.75 992.93 993.10
1000.03 999.23 998.37 997.43 996.42 995.35 994.24 993.12 992.02 990.97 990.01 989.15 988.43 987.87 987.45 987.20 987.10 987.13 987.29 987.55 987.90 988.30 988.74 989.19 989.64 990.06 990.46 990.82 991.13 991.40 991.62 991.81 991.95 992.08 992.18 992.27 992.36 992.47
1000.14 999.38 998.52 997.57 996.54 995.43 994.28 993.11 991.98 990.90 989.93 989.10 988.42 987.91 987.58 987.42 987.42 987.56 987.81 988.16 988.56 989.01 989.46 989.90 990.30 990.67 990.98 991.24 991.44 991.58 991.67 991.73 991.75 991.76 991.76 991.76 991.78 991.82
1000.24 999.48 998.62 997.65 996.58 995.43 994.24 993.04 991.89 990.81 989.86 989.05 988.43 988.00 987.75 987.68 987.78 988.01 988.34 988.76 989.21 989.68 990.13 990.54 990.90 991.19 991.41 991.56 991.64 991.66 991.63 991.57 991.48 991.38 991.28 991.21 991.17 991.18
1000.25 999.48 998.59 997.58 996.48 995.30 994.09 992.88 991.74 990.69 989.78 989.05 988.50 988.15 988.00 988.03 988.20 988.51 988.90 989.35 989.82 990.28 990.71 991.07 991.36 991.56 991.69 991.73 991.69 991.60 991.46 991.28 991.09 990.91 990.75 990.63 990.56 990.56
1000.14 999.33 998.40 997.35 996.22 995.03 993.82 992.65 991.55 990.57 989.75 989.11 988.67 988.42 988.37 988.47 988.72 989.07 989.49 989.95 990.39 990.81 991.17 991.45 991.65 991.76 991.77 991.70 991.56 991.36 991.12 990.86 990.60 990.36 990.16 990.02 989.95 989.96
Thickness
5577 5578 5578 5580 5580 5579 5577 5574 5572 5578 5591 5597 5596 5600 5596 5591 5591 5589 5587 5585 5581 5579 5578 5577 5576 5574 5571 5569 5566 5561 5554 5545 5537 5530 5525 5518 5512 5506
5557 5558 5560 5561 5561 5561 5560 5559 5558 5557 5568 5584 5585 5587 5586 5584 5584 5582 5581 5579 5576 5575 5573 5572 5570 5569 5567 5565 5562 5556 5548 5539 5530 5523 5518 5512 5505 5498
5537 5537 5540 5541 5542 5543 5542 5542 5542 5541 5545 5564 5571 5574 5573 5573 5574 5573 5573 5572 5572 5571 5568 5567 5566 5564 5561 5559 5555 5549 5541 5532 5524 5517 5512 5506 5498 5491
5515 5516 5519 5520 5521 5521 5521 5522 5524 5526 5526 5538 5555 5559 5560 5562 5562 5563 5565 5564 5564 5566 5564 5562 5561 5558 5555 5551 5547 5541 5534 5526 5518 5511 5505 5499 5491 5482
5493 5494 5495 5495 5497 5498 5500 5503 5506 5511 5513 5518 5534 5543 5545 5547 5547 5550 5550 5551 5552 5553 5554 5554 5552 5551 5548 5545 5540 5534 5527 5519 5511 5503 5497 5490 5482 5473
5472 5471 5471 5471 5472 5474 5478 5483 5487 5493 5500 5505 5514 5524 5531 5534 5529 5533 5535 5536 5538 5539 5542 5544 5544 5542 5541 5539 5534 5527 5518 5509 5502 5494 5487 5480 5472 5463
5453 5452 5452 5451 5451 5450 5453 5459 5464 5469 5477 5486 5495 5505 5514 5516 5516 5518 5522 5530 5529 5527 5526 5531 5531 5532 5532 5530 5523 5514 5504 5496 5488 5482 5475 5469 5461 5453
5433 5435 5436 5436 5435 5432 5432 5435 5438 5443 5452 5459 5471 5482 5493 5498 5502 5504 5509 5515 5522 5520 5513 5518 5516 5517 5517 5514 5512 5502 5492 5484 5478 5470 5463 5458 5452 5444
5407 5409 5413 5415 5411 5411 5417 5423 5425 5427 5428 5433 5445 5459 5468 5476 5480 5486 5493 5500 5510 5510 5502 5506 5502 5501 5498 5497 5494 5488 5480 5473 5468 5460 5453 5448 5442 5435
5383 5384 5386 5388 5387 5386 5393 5403 5411 5418 5419 5422 5428 5440 5448 5454 5457 5464 5473 5484 5486 5489 5493 5495 5490 5486 5482 5480 5479 5473 5466 5461 5457 5451 5445 5438 5432 5423
5362 5361 5361 5364 5366 5364 5367 5377 5391 5404 5412 5417 5423 5431 5438 5444 5447 5453 5463 5468 5473 5470 5472 5477 5472 5467 5465 5464 5462 5459 5452 5449 5447 5443 5437 5430 5421 5412
5339 5340 5340 5342 5345 5345 5347 5356 5369 5384 5397 5408 5416 5424 5431 5437 5441 5443 5453 5464 5465 5462 5460 5461 5458 5455 5449 5447 5445 5442 5440 5439 5437 5434 5428 5421 5411 5400
5318 5320 5322 5323 5326 5331 5336 5344 5353 5365 5377 5389 5403 5416 5423 5426 5429 5432 5439 5450 5457 5454 5453 5452 5448 5445 5442 5433 5429 5427 5426 5425 5424 5421 5417 5409 5400 5389
5297 5300 5302 5308 5315 5322 5329 5337 5344 5353 5362 5375 5389 5402 5410 5414 5417 5421 5427 5435 5443 5446 5443 5444 5442 5437 5430 5423 5419 5415 5413 5412 5409 5404 5397 5391 5386 5379
5280 5284 5289 5297 5305 5312 5319 5328 5337 5343 5354 5367 5379 5389 5395 5400 5405 5410 5415 5421 5423 5425 5425 5428 5430 5426 5421 5417 5411 5409 5404 5398 5393 5386 5379 5373 5367 5362
5271 5276 5281 5286 5292 5300 5311 5321 5330 5338 5348 5359 5369 5376 5383 5389 5395 5401 5405 5409 5408 5405 5406 5408 5410 5409 5405 5404 5403 5398 5392 5386 5379 5371 5364 5358 5353 5348
5264 5269 5272 5275 5283 5293 5304 5316 5327 5337 5345 5354 5361 5368 5375 5380 5385 5391 5395 5397 5396 5394 5393 5393 5393 5394 5395 5394 5388 5385 5380 5372 5365 5358 5349 5344 5342 5339
5254 5257 5260 5264 5273 5285 5298 5312 5324 5334 5341 5347 5355 5362 5370 5374 5379 5384 5388 5389 5388 5387 5386 5385 5384 5383 5383 5379 5378 5373 5366 5359 5351 5344 5337 5332 5330 5329
5243 5247 5251 5257 5267 5280 5293 5306 5320 5330 5337 5344 5351 5360 5366 5371 5375 5378 5382 5383 5382 5379 5376 5374 5372 5372 5374 5371 5363 5360 5352 5344 5338 5332 5327 5323 5320 5320
5236 5240 5246 5254 5265 5277 5290 5303 5316 5327 5336 5343 5350 5357 5364 5368 5372 5375 5377 5377 5374 5370 5366 5362 5360 5358 5357 5352 5347 5342 5340 5334 5329 5324 5320 5317 5313 5312
5234 5238 5244 5252 5264 5276 5288 5301 5313 5325 5335 5343 5350 5356 5361 5366 5369 5371 5372 5371 5367 5363 5358 5354 5349 5347 5337 5332 5331 5333 5331 5327 5321 5312 5308 5305 5303 5304
5231 5236 5243 5253 5265 5276 5288 5301 5314 5325 5335 5342 5348 5354 5359 5363 5365 5366 5365 5362 5358 5353 5348 5341 5336 5331 5326 5323 5320 5317 5316 5316 5313 5309 5304 5300 5297 5295
5229 5235 5244 5255 5267 5278 5290 5301 5313 5325 5334 5341 5347 5353 5357 5359 5359 5359 5356 5352 5348 5344 5340 5335 5328 5323 5318 5312 5307 5304 5303 5302 5300 5299 5298 5298 5295 5290